コルレヴィッチ彗星

203P/Korlevic (2010)

English version
Home page
Updated on September 4, 2011

---------------------------------------------------------------------

・ プロフィール

符号 203P/2008 R4
検出日 2008年9月3日
検出光度 20.3等
検出者 T. H. Bressi (Spacewatch), G. V. Williams (Minor Planet Center)

・ 写真集

・ 軌道要素

Epoch 2010 Feb. 13.0 TT = JDT 2455240.5
T 2010 Feb. 8.20713 TT                                  MPC
q   3.1821314            (2000.0)            P               Q
n   0.09841073     Peri.  154.54519     +0.08469557     -0.99522062
a   4.6463054      Node   290.56509     +0.90508063     +0.09724277
e   0.3151265      Incl.    2.97583     +0.41672019     -0.00893108
P  10.0
From 541 observations 1999 Nov. 3-2010 Dec. 13, mean residual 0".7.

・ 星図

・ 光度変化

        m1 = 4.2 + 5 logΔ + 20.0 log r(t - 80)

---------------------------------------------------------------------

軌道要素はM.P.E.C. 2010-Y12に掲載されたものです。
星図は StellaNavigator Ver.2.0 for Windows (アストロアーツ編著 / アスキー出版局刊) で作成したものです。
光度グラフはComet for Windowsで作成したものです。

---------------------------------------------------------------------

Copyright(C) Seiichi Yoshida (comet@aerith.net). All rights reserved.